sat.trackr.live / text

‹ back to catalog

STARLINK-34085

NORAD 64036 · 2025-102Q

PAYLOAD ACTIVE UNKNOWN

§ Identity

Operator
Country
US
Launch date
2025-05-16
Launch site
AFWTR
Launch vehicle
Mass (kg)
RCS (m²)

Purposes: comms

External: N2YO · Heavens-Above · Gunter

§ Orbital elements

Epoch: 2026-05-24T19:44:31.086528Z

Period
96.11 min
Inclination
70.0006°
Eccentricity
0.0003134
Mean motion
14.98344121 rev/d
Perigee alt
569.8 km
Apogee alt
574.2 km
Semi-major
6,950.1 km
B*
4.3520e-4
RAAN
282.5892°
Arg perigee
269.9893°
Mean anomaly
90.0907°
Rev number
5,735

§ Raw data

STARLINK-340851 64036U 25102Q   26144.82258202  .00005105  00000+0  43520-3 0  99922 64036  70.0006 282.5892 0003134 269.9893  90.0907 14.98344121 57359

JSON: /api/v1/satellites/64036 · /tle

For live sub-satellite position, see the globe view (requires WebGL).

§ Visibility from observer

Set your observer location to see the next 7 days of passes ≥ 10°. The values pass through the URL so the page stays shareable.

No JS? Fill the form by hand. The geolocation button needs JavaScript.